Location: Newark
(33.6333°S, 78.8500°W)
Time: 23:30:45
(UTC+00:00)

Tiros 1 despin weight - Pass Details

Date: 28 September 2019
Orbit: 593 x 643 km, 48.2° (Epoch: 22 October)

Event Time Altitude Azimuth Distance (km) Brightness Sun altitude
Rises 07:12:56 0° 226° (SW) 2,922 - -43.6°
Reaches altitude 10° 07:15:40 10° 210° (SSW) 2,022 - -43.2°
Maximum altitude 07:19:22 23° 158° (SSE) 1,367 - -42.6°
Drops below altitude 10° 07:23:06 10° 105° (ESE) 2,035 - -42.0°
Exits shadow 07:24:14 - 97° (E) 2,388 ? -41.8°
Sets 07:25:52 0° 90° (E) 2,946 ? -41.6°
